Terminal Aerodrome Forecast
Issued by NWS Wilmington, OH

Current Version | Previous Version | Graphics & Text | Print | Product List | Glossary On
Versions: 1 2 3 4 5 6 7 8 9 10 11 12 13 14 15 16 17 18 19 20 21
000
FTUS41 KILN 251100
TAFDAY
TAF
KDAY 251139Z 2512/2612 17007KT P6SM BKN150
     FM251500 10007KT 3SM -RA OVC050
     FM251800 08008KT 3SM -RA OVC015
     FM252200 05010KT 1/2SM SN OVC006
     FM260100 04015G23KT 3/4SM -SN OVC006
     FM260300 02015G23KT 1SM -SN SCT015 OVC022
     FM260600 01014G22KT 3SM -SN OVC022
     FM261000 36013G21KT P6SM OVC022=

USA.gov is the U.S. government's official web portal to all federal, state and local government web resources and services.